TimeBST,TemperatureF,Dew PointF,Humidity,Sea Level PressureIn,VisibilityMPH,Wind Direction,Wind SpeedMPH,Gust SpeedMPH,PrecipitationIn,Events,Conditions,WindDirDegrees,DateUTC
12:39 AM,59.0,59.0,100,29.74,0.9,North,8.1,-,N/A,,Scattered Clouds,350,2013-09-05 23:39:00
12:50 AM,60,59,96,29.75,1,NNW,8.1,,,,Mist,340,2013-09-05 23:50:00
12:50 AM,60.8,59.0,94,29.74,0.7,NNW,8.1,-,N/A,,Scattered Clouds,340,2013-09-05 23:50:00
1:50 AM,60.8,59.0,94,29.71,1.6,NNW,10.4,-,N/A,,Mostly Cloudy,340,2013-09-06 00:50:00
2:13 AM,60.8,59.0,94,29.74,0.5,North,9.2,-,N/A,Fog,Fog,350,2013-09-06 01:13:00
2:50 AM,60.8,60.8,100,29.74,1.1,NW,6.9,-,N/A,,Overcast,320,2013-09-06 01:50:00
3:50 AM,61,60,96,29.73,1,NW,8.1,,,Rain,Light Drizzle,320,2013-09-06 02:50:00
3:50 AM,60.8,60.8,100,29.71,1.0,NW,8.1,-,N/A,,Light Drizzle,320,2013-09-06 02:50:00
4:50 AM,59.0,59.0,100,29.71,1.1,NW,9.2,-,N/A,,Light Drizzle,320,2013-09-06 03:50:00
5:50 AM,59.0,59.0,100,29.71,1.2,NW,6.9,-,N/A,,Light Drizzle,310,2013-09-06 04:50:00
6:50 AM,59,58,97,29.74,1,North,4.6,,,Rain,Light Drizzle,350,2013-09-06 05:50:00
6:50 AM,59.0,59.0,100,29.74,1.2,North,4.6,-,N/A,,Overcast,350,2013-09-06 05:50:00
7:50 AM,59.0,59.0,100,29.74,1.7,North,2.3,-,N/A,,Overcast,10,2013-09-06 06:50:00
8:50 AM,60.8,57.2,88,29.74,2.5,WSW,6.9,-,N/A,,Haze,240,2013-09-06 07:50:00
9:50 AM,62,58,84,29.77,3,SW,4.6,,,,Haze,220,2013-09-06 08:50:00
9:50 AM,62.6,59.0,88,29.77,3.1,SW,4.6,-,N/A,,Haze,220,2013-09-06 08:50:00
10:05 AM,62.6,59.0,88,29.74,3.7,SSW,5.8,-,N/A,,Haze,200,2013-09-06 09:05:00
10:50 AM,66.2,57.2,73,29.74,5.0,SW,9.2,-,N/A,,Haze,230,2013-09-06 09:50:00
11:50 AM,68.0,59.0,73,29.74,-9999.0,WSW,11.5,-,N/A,,Clear,240,2013-09-06 10:50:00
12:50 PM,60,56,81,29.77,7,WSW,13.8,,,Rain,Light Rain,250,2013-09-06 11:50:00
12:50 PM,60.8,55.4,82,29.77,6.2,WSW,13.8,-,N/A,Rain,Light Rain,250,2013-09-06 11:50:00
1:50 PM,59.0,57.2,94,29.77,6.2,SW,8.1,-,N/A,Rain,Rain,220,2013-09-06 12:50:00
2:50 PM,60.8,57.2,88,29.77,5.0,South,6.9,-,N/A,Rain,Light Rain,190,2013-09-06 13:50:00
3:50 PM,61,59,91,29.77,6,South,6.9,,,Rain,Light Rain,190,2013-09-06 14:50:00
3:50 PM,60.8,59.0,94,29.77,5.6,South,6.9,-,N/A,Rain,Light Rain,190,2013-09-06 14:50:00
4:50 PM,60.8,57.2,88,29.77,6.2,South,6.9,-,N/A,,Overcast,190,2013-09-06 15:50:00
5:50 PM,59.0,55.4,88,29.77,6.2,South,8.1,-,N/A,,Mostly Cloudy,180,2013-09-06 16:50:00
6:50 PM,58,55,88,29.79,19,South,9.2,,,,Partly Cloudy,190,2013-09-06 17:50:00
6:50 PM,59.0,55.4,88,29.77,6.2,South,9.2,-,N/A,,Scattered Clouds,190,2013-09-06 17:50:00
7:50 PM,57.2,55.4,94,29.80,6.2,SSW,5.8,-,N/A,,Scattered Clouds,200,2013-09-06 18:50:00
8:50 PM,55.4,51.8,88,29.83,6.2,SSW,6.9,-,N/A,,Scattered Clouds,200,2013-09-06 19:50:00
9:50 PM,55,53,88,29.84,7,South,5.8,,,,Scattered Clouds,180,2013-09-06 20:50:00
9:50 PM,55.4,51.8,88,29.83,6.2,South,5.8,-,N/A,,Partly Cloudy,180,2013-09-06 20:50:00
10:50 PM,53.6,51.8,94,29.83,6.2,SSW,8.1,-,N/A,,Unknown,200,2013-09-06 21:50:00
11:50 PM,53.6,50.0,88,29.83,6.2,South,9.2,-,N/A,,Unknown,190,2013-09-06 22:50:00